Flag for U.S.A. Weather past 2 weeks in Passaic, New Jersey, U.S.A.

Now
68 °F

Clear.


Feels Like: 68 °F
Forecast: 64 / 85 °F
Wind: No wind

Location: Teterboro Airport

Current Time: May 30, 2015 at 12:42:01 AM

Latest Report: May 29, 2015 at 11:51 PM


Visibility: 10 mi

Pressure: 30.21 "Hg

Humidity: 78%

Dew point: 61 °F

Location of PassaicLocation

Historic Weather in Passaic — Graph

°F

Passaic temperature yesterday

Maximum temperature yesterday: 82 °F (at 1:51 PM)
Minimum temperature yesterday: 62 °F (at 5:51 AM)
Average temperature yesterday: 73 °F

Past Weeks' High & Low Weather Summary

 TemperatureHumidityPressure
High89 °F (May 26, 2:51 PM)94% (May 19, 3:02 AM)30.41 "Hg (May 19, 3:02 AM)
Low47 °F (May 23, 5:51 AM)17% (May 23, 6:51 PM)29.74 "Hg (May 19, 9:51 PM)
Average68 °F57%30.12 "Hg
* Reported May 14 10:51 PM — May 29 10:51 PM, Passaic, Weather by CustomWeather, © 2015

Note: Actual official high and low records may vary slightly from our data, if they occured in-between our weather recording intervals... More about our weather records

Advertising

Passaic weather history for previous 24 hours

 ConditionsComfort  
Time TempWeatherWind HumidityBarometerVisibility
10:51 PM
Fri, May 29
68 °FClear.3 mph73%30.22 "Hg10 mi
9:51 PM68 °FClear.8 mph70%30.23 "Hg10 mi
8:51 PM70 °FSunny.8 mph64%30.22 "Hg10 mi
7:51 PM73 °FSunny.7 mph55%30.21 "Hg10 mi
6:51 PM75 °FSunny.9 mph52%30.20 "Hg10 mi
5:51 PM80 °FSunny.9 mph42%30.19 "Hg10 mi
4:51 PM82 °FSunny.8 mph37%30.20 "Hg10 mi
3:51 PM82 °FSunny.7 mph38%30.22 "Hg10 mi
2:51 PM82 °FSunny.8 mph38%30.24 "Hg10 mi
1:51 PM82 °FSunny.5 mph34%30.24 "Hg10 mi
12:51 PM79 °FSunny.No wind42%30.26 "Hg10 mi
11:51 AM78 °FSunny.6 mph45%30.27 "Hg10 mi
10:51 AM77 °FSunny.No wind45%30.28 "Hg10 mi
9:51 AM74 °FSunny.5 mph52%30.29 "Hg10 mi
8:51 AM71 °FSunny.6 mph57%30.29 "Hg10 mi
7:51 AM68 °FSunny.7 mph63%30.29 "Hg10 mi
6:51 AM65 °FSunny.No wind68%30.29 "Hg10 mi
5:51 AM62 °FClear.3 mph75%30.27 "Hg10 mi
4:51 AM63 °FClear.No wind73%30.25 "Hg10 mi
3:51 AM64 °FClear.No wind68%30.25 "Hg10 mi
2:51 AM67 °FClear.No wind61%30.24 "Hg10 mi
1:51 AM68 °FClear.5 mph59%30.24 "Hg10 mi
12:51 AM70 °FClear.5 mph57%30.24 "Hg10 mi
Weather by CustomWeather, © 2015

See weather overviewHow to use our weather pages